Location: Wanzleben
(52.0609°N, 11.4408°E)
Time: 19:05:54
(UTC+00:00)

Cosmos 2227 Rocket - Pass Details

Date: 18 September 2020
Orbit: 840 x 844 km, 71.0° (Epoch: 22 October)

Event Time Altitude Azimuth Distance (km) Brightness Sun altitude
Rises 18:15:08 0° 247° (WSW) 3,392 6.3 -9.0°
Reaches altitude 10° 18:17:54 10° 259° (W) 2,460 5.8 -9.4°
Maximum altitude 18:22:47 29° 319° (NW) 1,498 4.2 -10.2°
Drops below altitude 10° 18:27:41 10° 19° (NNE) 2,469 4.6 -10.9°
Sets 18:30:29 0° 30° (NNE) 3,407 5.2 -11.3°
